RH
91 92 92 91 90 89 89 89 88 87 86 83 81 79 77 75 76 76 73 70 66 61 54 58 59 59 58 60 63 64 66 70 73 73 76 70 68 68 72 76 78 70 74
86 85 92 90 88 87 88 89 88 86 84 81 80 78 78 76 74 74 71 68 65 55 56 56 54 54 55 58 63 64 66 74 77 75 72 70 67 69 71 75 80 75 78
84 83 83 88 87 87 88 88 86 84 80 77 76 77 75 72 68 72 72 68 64 57 56 56 57 58 61 64 67 68 70 74 76 76 70 74 68 67 68 76 76 73 73
83 79 81 89 88 89 88 87 83 79 78 77 75 73 72 68 65 69 74 71 66 59 58 59 61 63 66 70 75 76 76 75 76 71 60 61 61 69 69 66 67 71 74
77 78 83 88 87 88 89 86 84 82 80 77 74 70 66 64 68 69 74 70 66 60 61 62 63 66 71 79 79 78 76 75 68 58 68 75 74 65 70 70 67 66 72
80 83 85 84 83 88 89 87 86 84 82 78 73 70 64 66 69 72 75 71 64 63 63 64 66 70 79 79 79 78 77 78 63 61 74 74 70 61 63 67 68 67 73
91 91 84 87 84 86 88 88 86 85 83 78 75 73 72 69 69 74 78 74 68 67 67 69 71 77 78 78 79 80 77 73 53 64 76 76 72 61 60 64 67 68 67
94 92 92 93 94 91 90 89 87 86 84 79 78 76 75 77 78 78 78 78 76 76 77 77 78 77 77 77 78 80 81 76 56 59 70 78 74 61 60 63 73 76 71
91 94 96 94 94 92 90 90 88 87 84 81 80 79 79 79 79 79 79 79 78 78 77 78 78 75 75 76 76 82 85 80 60 62 58 82 72 62 60 62 66 73 76
95 97 95 98 89 90 83 88 87 85 81 79 78 78 78 78 78 79 78 77 75 73 72 75 71 72 75 74 76 81 82 70 58 70 83 86 72 64 67 69 70 72 76
95 93 90 96 92 91 86 81 82 83 80 78 76 76 80 74 73 74 79 76 73 72 73 73 71 73 77 72 78 79 78 52 55 71 88 77 70 65 70 72 74 75 75
92 97 94 90 91 88 64 83 85 75 77 73 69 72 69 74 75 66 76 78 74 77 73 70 70 79 69 58 57 71 55 49 53 72 87 75 65 62 66 68 69 68 69
92 92 87 88 87 75 68 75 73 73 79 78 74 74 74 75 76 79 79 80 72 77 67 67 60 56 51 55 59 56 54 49 58 73 79 73 63 57 60 62 63 64 65
86 79 83 80 79 67 71 72 72 78 83 95 88 79 86 91 88 86 82 82 77 76 69 63 63 53 52 50 52 54 52 50 55 72 77 70 66 52 54 56 59 61 62
81 78 78 80 64 65 70 75 74 81 84 81 82 82 87 83 87 84 84 80 72 69 59 58 60 55 55 48 49 50 49 48 48 55 82 72 70 59 55 58 58 56 55
78 83 81 75 67 71 74 75 82 86 86 87 92 90 88 91 87 84 75 68 66 66 65 62 58 61 56 51 49 49 46 47 44 46 67 78 75 69 60 56 52 51 49
74 73 80 70 78 78 77 82 90 93 92 93 92 88 87 84 80 78 74 76 70 65 62 58 62 62 62 53 53 51 48 49 46 44 46 67 84 75 66 52 45 46 44
61 65 66 59 82 83 90 91 95 94 89 86 84 81 75 71 72 72 76 69 64 66 67 68 69 66 67 64 60 52 59 48 48 41 41 46 80 67 70 61 49 46 45
59 63 64 74 86 89 92 94 92 89 84 82 84 74 62 59 60 71 72 65 60 67 72 66 69 72 71 65 47 47 53 58 49 43 44 41 64 73 68 69 66 53 44
63 72 67 82 87 93 94 95 95 87 82 82 76 66 57 56 55 68 69 70 68 68 70 66 67 64 70 65 45 47 59 57 56 58 51 39 48 52 55 52 52 54 51
70 66 81 86 91 90 94 96 92 82 79 71 62 57 58 58 58 64 66 67 67 69 70 69 67 65 66 70 65 62 57 55 49 54 54 54 51 47 43 44 47 46 50
78 88 89 85 87 82 79 80 78 75 72 65 64 62 58 60 56 59 64 66 66 66 68 68 68 70 73 70 66 74 71 62 59 53 57 51 52 51 46 38 42 44 49
94 94 90 85 80 81 81 69 67 64 66 66 67 64 60 57 53 53 56 58 63 70 72 71 71 71 73 69 67 68 77 79 70 58 47 51 50 53 55 52 45 42 44
95 94 88 83 86 84 71 59 52 60 66 73 72 69 56 44 41 40 50 56 59 65 62 75 64 75 76 78 76 61 67 70 69 70 55 52 51 44 51 56 54 47 46
82 79 89 83 71 63 62 68 63 63 67 64 58 47 41 46 43 44 50 52 58 69 69 71 77 80 84 86 84 78 69 66 60 63 70 61 54 51 51 58 57 59 53
71 66 55 55 62 61 61 66 63 61 49 47 46 48 45 49 54 51 46 57 63 66 72 82 79 80 88 86 84 78 68 67 64 65 70 68 64 58 53 54 59 60 59
Wind_Speed
10 13 16 17 17 17 17 17 18 19 20 20 19 20 19 20 19 17 17 16 16 18 19 19 17 16 15 15 15 15 15 14 12 9 7 12 14 15 16 15 13 10 13
17 13 19 18 18 18 18 18 19 19 20 20 19 19 19 19 18 17 17 15 16 18 18 17 17 16 15 14 14 14 14 11 8 7 6 13 15 16 17 16 14 10 13
19 13 15 19 19 19 19 19 20 20 20 20 19 18 19 20 18 16 16 15 16 17 18 17 17 17 16 15 14 14 13 13 9 5 4 4 9 17 17 15 14 16 15
17 16 14 18 19 19 19 20 19 19 20 19 19 19 18 19 17 17 15 16 16 16 16 17 17 16 15 14 13 13 15 18 11 9 7 5 11 16 16 15 15 15 14
14 15 15 18 19 19 19 19 19 18 18 18 18 19 18 18 18 18 16 16 16 16 16 16 15 14 13 12 14 15 16 19 14 10 7 7 6 12 15 14 13 14 13
15 14 17 18 18 20 20 20 20 19 17 17 18 17 18 18 19 18 17 16 16 15 15 14 13 12 10 12 13 13 13 14 11 7 7 8 6 12 13 13 13 13 13
15 11 12 14 17 21 20 20 19 18 16 16 17 16 16 17 18 17 15 14 14 13 12 11 10 9 9 11 11 15 15 13 5 6 6 6 6 12 13 11 11 11 12
17 12 13 17 13 19 19 17 16 16 16 16 15 15 15 15 14 14 13 11 11 9 8 7 5 6 7 10 12 10 13 14 8 6 6 5 8 11 12 10 9 8 9
17 10 7 14 9 14 17 16 15 15 15 14 14 13 14 13 12 12 11 10 9 7 6 3 2 3 6 8 12 10 11 14 7 4 5 2 7 9 11 10 11 11 9
14 9 6 9 9 9 9 14 16 14 13 12 12 12 11 12 11 10 10 10 8 6 3 1 4 5 5 7 9 8 11 9 5 6 3 2 8 11 13 11 12 12 13
7 10 10 8 7 7 7 10 13 14 13 12 10 11 7 4 6 8 6 7 7 6 3 3 5 6 6 6 4 5 6 4 5 3 2 6 10 13 14 14 14 15 16
13 11 11 9 10 9 7 6 6 7 4 5 5 6 4 5 5 5 5 7 5 2 4 6 6 3 7 3 4 2 3 5 4 3 3 8 10 11 13 13 14 16 17
16 11 13 11 10 9 7 5 4 3 3 4 5 4 2 3 4 4 4 2 1 2 4 4 4 5 5 5 4 3 4 4 3 3 3 8 8 9 10 11 12 15 16
13 16 12 11 11 7 6 3 4 4 4 4 5 6 6 4 4 4 3 3 4 3 5 5 3 4 6 6 7 6 4 4 2 2 3 7 6 7 9 9 11 12 14
13 11 9 9 9 7 8 6 6 5 5 5 5 6 5 4 5 4 4 4 4 3 4 5 5 5 6 6 6 6 6 6 6 2 0 5 7 8 9 9 10 10 11
12 7 7 6 8 10 7 7 6 6 5 5 4 5 6 5 4 5 4 4 3 3 4 4 4 4 4 4 6 6 6 5 6 5 2 4 5 9 10 10 9 8 8
14 11 7 7 8 9 8 8 6 4 5 4 3 6 6 5 5 4 4 4 3 3 3 4 5 5 5 5 6 5 5 4 5 6 6 2 4 9 11 9 7 7 7
18 13 11 8 9 8 9 7 5 5 4 4 4 4 6 7 5 4 5 4 3 4 4 4 4 4 4 4 3 5 4 4 6 6 7 4 4 4 7 8 7 10 9
18 16 12 9 10 10 9 6 5 5 4 4 4 4 5 6 6 5 4 3 4 4 4 3 3 3 3 3 3 3 4 4 5 6 8 10 5 3 2 6 13 14 11
15 12 13 11 12 9 6 5 3 4 4 4 3 4 6 6 7 6 5 6 5 4 5 4 5 3 2 2 3 4 3 3 4 5 5 5 6 6 4 4 4 4 11
15 16 14 16 12 9 4 4 3 4 3 3 4 8 7 6 7 6 4 5 5 4 3 3 2 3 3 3 2 4 3 3 6 4 4 5 6 4 3 3 2 2 3
15 12 11 14 14 9 7 5 4 5 4 4 5 6 7 7 6 5 5 3 3 3 5 4 3 3 2 3 1 1 4 4 4 4 3 3 5 4 6 6 4 4 3
14 12 12 12 12 9 8 5 5 5 4 3 4 4 4 6 5 7 7 5 5 4 3 3 3 3 0 3 4 2 4 1 2 3 4 5 7 5 5 5 6 5 2
12 7 12 12 10 8 8 10 14 6 5 3 4 3 4 6 6 6 6 6 5 3 4 3 1 1 2 3 3 3 2 3 0 4 4 3 5 6 6 4 4 5 5
13 12 9 7 7 6 8 9 9 9 6 4 5 7 5 5 7 7 6 6 6 4 4 6 5 5 4 3 2 2 2 2 2 2 3 4 3 3 4 3 4 5 5
7 8 9 9 7 9 10 8 11 13 8 6 4 4 3 3 4 6 6 5 4 4 4 3 3 5 4 3 1 1 2 2 2 1 1 2 3 4 2 4 4 4 5
Wind_Direction
133 137 126 122 115 113 109 106 101 98 95 91 90 90 89 88 85 82 79 73 72 72 70 66 59 54 46 38 29 20 23 29 31 30 33 55 54 49 42 39 37 35 38
127 135 125 120 117 114 109 105 101 97 95 94 93 92 90 86 80 79 78 76 74 73 70 65 62 56 47 36 29 19 15 18 18 22 25 55 53 49 45 42 34 37 38
128 124 119 119 119 116 112 108 104 102 102 100 97 93 91 87 85 80 78 76 73 73 71 67 61 54 42 31 25 16 9 356 7 2 125 99 61 48 43 41 38 36 36
123 122 127 121 122 118 115 110 108 106 104 103 101 100 95 93 88 84 80 78 78 78 73 68 60 50 37 22 16 14 10 5 38 55 102 73 63 47 41 40 40 38 32
124 124 129 125 121 119 111 108 107 107 103 103 103 101 96 94 91 86 84 82 83 80 74 67 60 49 30 13 4 5 12 21 43 80 66 63 64 56 42 32 35 39 36
128 129 125 125 128 120 111 112 107 102 103 103 100 98 97 95 92 88 83 83 82 80 74 67 57 43 23 6 359 360 6 38 51 13 64 67 68 67 55 38 32 30 33
110 107 109 106 123 114 109 102 106 108 107 104 102 103 101 99 96 90 89 89 86 77 70 62 48 32 15 360 1 349 360 20 50 75 64 62 64 65 59 50 39 36 36
91 84 84 89 112 105 105 111 114 113 111 108 107 108 108 104 105 104 103 99 93 91 79 64 37 22 8 353 342 355 349 355 43 91 60 51 56 61 57 38 34 32 34
72 57 78 107 131 119 119 124 121 109 109 111 117 122 122 124 122 119 119 116 111 100 96 80 325 347 8 347 327 350 348 360 67 68 72 23 53 62 55 30 19 19 19
96 70 45 115 159 115 127 121 116 119 122 130 134 129 134 138 135 142 142 137 131 145 148 251 312 327 16 325 307 331 349 3 79 68 20 32 62 58 57 41 25 17 19
112 130 171 167 147 127 130 137 125 129 139 142 136 141 141 139 159 164 160 156 167 173 183 246 290 345 341 349 19 309 9 15 70 67 53 45 60 60 61 53 45 40 29
166 166 202 184 144 150 149 135 125 143 154 149 153 174 163 180 193 168 159 176 200 75 259 258 293 325 356 5 38 27 36 31 58 93 48 53 58 62 69 68 60 52 41
175 174 190 155 163 155 154 150 149 153 178 169 130 151 136 103 74 54 95 51 322 260 14 34 36 50 28 27 34 13 39 45 71 95 75 64 58 66 70 67 63 59 48
180 162 158 170 164 167 160 154 148 144 134 82 57 71 71 74 78 59 56 52 64 46 46 42 42 26 29 18 20 24 28 5 9 138 155 119 101 79 78 75 68 61 53
139 156 159 162 167 140 126 133 126 99 88 86 96 69 65 78 74 57 49 49 50 46 45 36 24 20 35 34 34 27 14 357 4 42 210 164 131 115 107 95 82 72 64
141 149 161 150 126 127 129 118 89 78 87 80 60 75 54 78 75 74 75 61 42 34 35 69 53 50 29 33 17 11 348 5 15 12 164 241 146 118 115 109 96 82 67
149 163 158 159 113 119 113 93 98 96 76 86 84 76 93 90 95 99 85 65 44 31 68 51 49 40 35 19 11 342 346 354 10 358 1 108 140 129 131 128 87 81 59
147 160 160 144 125 111 97 94 93 102 111 104 114 124 125 119 133 96 95 70 37 34 53 65 45 31 29 25 347 335 356 346 13 14 1 350 206 169 156 140 101 84 50
155 153 149 131 124 113 106 107 116 126 122 134 135 139 105 92 74 91 102 80 46 53 57 41 25 59 11 359 337 358 339 349 359 22 28 20 40 102 198 178 90 73 48
146 140 148 126 130 118 120 127 140 118 171 144 156 102 108 86 71 65 52 47 55 47 29 20 30 0 10 325 350 353 353 342 7 43 11 14 19 1 7 64 38 68 53
141 146 143 139 140 129 154 137 150 164 134 128 111 92 79 80 69 75 68 60 44 54 35 36 37 14 322 358 52 354 320 349 356 26 22 13 14 25 63 35 42 70 81
149 150 139 141 144 155 162 180 158 159 143 143 101 96 96 90 94 101 94 77 53 39 24 15 18 335 321 26 50 7 355 335 14 3 23 30 20 2 8 1 17 72 71
137 148 146 153 160 164 180 126 105 93 84 88 97 107 128 123 94 76 73 69 45 43 6 341 349 75 346 326 49 112 3 324 324 353 315 8 13 14 9 4 11 26 18
139 154 160 173 171 176 155 139 146 147 147 155 133 119 98 103 91 94 90 74 55 30 1 322 311 221 129 55 14 28 91 179 25 350 349 357 358 356 344 348 341 340 348
156 154 184 156 153 145 160 134 128 122 116 104 104 115 99 79 75 71 66 53 31 13 344 338 345 64 74 99 84 352 353 350 35 106 295 315 337 328 320 339 337 345 345
127 127 133 128 104 95 94 100 116 122 125 112 115 106 95 90 77 65 57 52 25 356 2 45 71 64 69 74 65 332 181 203 248 209 263 279 256 278 304 320 335 317 313